CZ-2D DEB, 44609

Orbit data source: Space-Track

CZ-2D DEB, 44609 is space debris in SSO originally from a launch on Mon, 09 Oct 2017 UTC launched from the Jiuquan Satellite Launch Center, China (JSC). Debris objects in space refer to the collection of defunct objects orbiting the Earth. Examples of debris include non-operational satellites, rocket bodies, and fragments generated from explosions, collisions, or faulty payload assembly.

Loading next visibility...
Identifier
44609, 2017-060B
Orbit
SSO
Last TLE update
9 hours ago
Origin
Manufacturer
Unknown
Mission
Spacecraft
Bus & Motor
Unknown
Mass
Unknown
Launch date (UTC)
2017-10-09 (8 years ago)
Launch vehicle
Unknown
Launch site
Jiuquan Satellite Launch Center, China (JSC)
Object type
Payload
Rocket body
Debris
Shape & HBR
Unknown
Radar Cross Section
Small (<0.1 m²)

Expand to show TLE details & history

TLE from 9 hours ago
0 CZ-2D DEB
1 44609U 17060B   25182.04162221  .00003039  00000-0  27275-3 0  9994
2 44609  97.5598 206.8529 0035351  53.7346 306.7133 14.95987599412607
Epoch: 2025-07-01T00:59Z
TLE epoch observation values (Epoch: 2025-07-01T00:59:56.158Z)
Latitude
-0.00006°
Longitude
-87.47385°
Altitude
567.712 km
Speed
7.585 km/s
True Right ascension
13h 47m 24s
True Declination
0° 00' 00"
Sunlit
Object was in daylight at epoch
Visualization orbit readout
Latitude
15.71408°
Longitude
95.00653°
Altitude
590.654 km
Speed
7.561 km/s
Apparent Right ascension
04h 48m 45s
Apparent Declination
-18° 08' 25"
Sunlit
Object is in daylight
Visualization observer readout
Local Sidereal Time
21:23:32
Azimuth
91.117° ESE
Elevation
-27.684°
Doppler factor
1
Orbital elements
Apogee altitude
600.898 km
Perigee altitude
551.729 km
Semi-major axis
6,954.45 km
Eccentricity
0.00354
Inclination
97.5598°
RAAN
206.8529°
Arg. of periapsis
53.7346°
True anomaly
Unknown
Mean anomaly
306.7133°
Eccentric anomaly
Unknown
Mean motion
3.74239 °/min
Orbital period
96.2 mins
BSTAR
0.00027275
Loading maneuver chart data...
Loading SW <> Apogee altitude chart data...
Loading historical data...
Loading historical data...
Loading historical data...
Loading historical data...
Loading historical data...
Loading historical data...
Loading historical data...
Other satellites on launch #60 in the year 2017 (2017-10-09 UTC)

CZ-2D DEB Visibility forecast

Observer location: undefined°, undefined°

Span
Click to sort rows by Start time (UTC) header in descending order
Start Az.
Max El. time (UTC)
Max El. Az.
Max El.
End time (UTC)
End Az.
7 mins2025-07-01 14:24:12.792Z17.448° NNE2025-07-01 14:27:12.792Z51.489° ENE41.681°2025-07-01 14:31:12.792Z185.373° SSW
6 mins2025-07-02 01:13:12.792Z133.174° SE2025-07-02 01:16:12.792Z55.591° ENE31.023°2025-07-02 01:19:12.792Z5.46° NNE
|